�������l�o���
Date,Time,MP-1(��Sv/h),MP-2(��Sv/h),MP-3(��Sv/h),MP-4(��Sv/h),MP-5(��Sv/h),MP-6(��Sv/h),MP-7(��Sv/h),MP-8(��Sv/h),����,����(m/s),���J
2021/09/18,00:00,0.595,0.891,0.564,1.080,0.766,0.361,0.628,0.586,��,8.9,��
2021/09/18,00:10,0.596,0.892,0.563,1.083,0.767,0.361,0.628,0.587,��,8.0,��
2021/09/18,00:20,0.593,0.890,0.563,1.080,0.766,0.361,0.629,0.587,��,8.5,��
2021/09/18,00:30,0.595,0.890,0.564,1.081,0.766,0.362,0.627,0.587,��,6.1,��
2021/09/18,00:40,0.596,0.890,0.563,1.079,0.765,0.362,0.626,0.586,��쓌,7.4,�L
2021/09/18,00:50,0.594,0.889,0.563,1.081,0.767,0.360,0.630,0.587,��,6.1,�L
2021/09/18,01:00,0.595,0.892,0.563,1.080,0.763,0.360,0.628,0.587,��,6.5,��
2021/09/18,01:10,0.596,0.889,0.563,1.083,0.765,0.362,0.629,0.586,��,7.6,��
2021/09/18,01:20,0.595,0.889,0.565,1.082,0.767,0.361,0.629,0.587,��,8.3,��
2021/09/18,01:30,0.595,0.889,0.564,1.080,0.764,0.361,0.629,0.588,��,8.6,�L
2021/09/18,01:40,0.596,0.890,0.563,1.079,0.767,0.361,0.629,0.585,��,6.8,�L
2021/09/18,01:50,0.596,0.890,0.565,1.083,0.766,0.361,0.629,0.587,��,9.4,�L
2021/09/18,02:00,0.594,0.890,0.562,1.081,0.766,0.362,0.629,0.586,��,8.8,�L
2021/09/18,02:10,0.594,0.889,0.564,1.083,0.764,0.361,0.629,0.588,��,8.6,�L
2021/09/18,02:20,0.596,0.890,0.564,1.081,0.766,0.361,0.628,0.586,��,8.4,�L
2021/09/18,02:30,0.595,0.889,0.565,1.082,0.766,0.360,0.631,0.587,��,7.5,�L
2021/09/18,02:40,0.594,0.887,0.564,1.081,0.764,0.362,0.627,0.586,��,8.1,�L
2021/09/18,02:50,0.595,0.887,0.563,1.080,0.764,0.361,0.628,0.587,��,8.7,�L
2021/09/18,03:00,0.596,0.888,0.563,1.082,0.761,0.361,0.629,0.585,��,7.8,�L
2021/09/18,03:10,0.595,0.889,0.562,1.082,0.763,0.361,0.628,0.586,��,8.4,�L
2021/09/18,03:20,0.593,0.886,0.563,1.081,0.763,0.360,0.627,0.585,��,7.8,�L
2021/09/18,03:30,0.593,0.885,0.564,1.079,0.763,0.362,0.627,0.586,��,7.5,�L
2021/09/18,03:40,0.593,0.887,0.563,1.079,0.763,0.361,0.627,0.585,��,9.2,�L
2021/09/18,03:50,0.593,0.886,0.562,1.081,0.763,0.361,0.626,0.583,��,7.5,�L
2021/09/18,04:00,0.594,0.883,0.562,1.079,0.765,0.360,0.625,0.585,��,9.1,�L
2021/09/18,04:10,0.595,0.886,0.564,1.079,0.762,0.362,0.628,0.585,��,10.6,�L
2021/09/18,04:20,0.595,0.885,0.562,1.081,0.760,0.361,0.627,0.586,��쓌,10.0,�L
2021/09/18,04:30,0.594,0.884,0.563,1.077,0.764,0.361,0.628,0.585,��,9.2,�L
2021/09/18,04:40,0.595,0.884,0.563,1.080,0.762,0.361,0.627,0.585,��,9.2,�L
2021/09/18,04:50,0.596,0.884,0.564,1.079,0.764,0.361,0.626,0.584,��,9.6,�L
2021/09/18,05:00,0.596,0.884,0.563,1.078,0.762,0.361,0.627,0.584,��,10.8,�L
2021/09/18,05:10,0.594,0.884,0.562,1.079,0.763,0.362,0.627,0.582,��,9.5,�L
2021/09/18,05:20,0.595,0.887,0.562,1.079,0.763,0.359,0.627,0.585,��,9.6,�L
2021/09/18,05:30,0.597,0.885,0.563,1.079,0.763,0.361,0.628,0.585,��,11.1,�L
2021/09/18,05:40,0.594,0.883,0.562,1.079,0.764,0.361,0.628,0.584,��,10.2,�L
2021/09/18,05:50,0.594,0.887,0.563,1.078,0.763,0.360,0.627,0.583,��,10.5,�L
2021/09/18,06:00,0.595,0.885,0.561,1.078,0.761,0.361,0.625,0.584,��,8.7,�L
2021/09/18,06:10,0.593,0.884,0.561,1.078,0.760,0.360,0.626,0.585,��,9.2,�L
2021/09/18,06:20,0.591,0.883,0.561,1.078,0.760,0.359,0.627,0.582,��,9.0,�L
2021/09/18,06:30,0.592,0.880,0.558,1.079,0.760,0.360,0.625,0.583,��,9.3,�L
2021/09/18,06:40,0.592,0.880,0.558,1.077,0.758,0.360,0.626,0.583,��,9.3,�L
2021/09/18,06:50,0.591,0.877,0.556,1.078,0.756,0.361,0.624,0.582,��,8.7,�L
2021/09/18,07:00,0.589,0.875,0.557,1.075,0.755,0.361,0.623,0.581,��,9.6,�L
2021/09/18,07:10,0.586,0.872,0.554,1.071,0.752,0.359,0.624,0.582,��쓌,10.2,�L
2021/09/18,07:20,0.585,0.867,0.551,1.068,0.748,0.356,0.622,0.578,��,12.4,�L
2021/09/18,07:30,0.581,0.863,0.550,1.062,0.745,0.355,0.619,0.577,��,10.9,�L
2021/09/18,07:40,0.581,0.864,0.550,1.062,0.744,0.357,0.619,0.577,��쓌,11.0,�L
2021/09/18,07:50,0.583,0.864,0.548,1.063,0.746,0.357,0.619,0.578,��쓌,11.4,�L
2021/09/18,08:00,0.579,0.862,0.549,1.059,0.744,0.358,0.621,0.578,��쓌,11.8,�L
2021/09/18,08:10,0.582,0.862,0.550,1.060,0.745,0.358,0.620,0.576,��쓌,13.1,�L
2021/09/18,08:20,0.582,0.860,0.548,1.060,0.742,0.358,0.617,0.577,��,11.0,�L
2021/09/18,08:30,0.581,0.857,0.550,1.056,0.741,0.357,0.618,0.575,��,13.0,�L
2021/09/18,08:40,0.578,0.853,0.546,1.052,0.738,0.357,0.617,0.575,��쓌,14.9,�L
2021/09/18,08:50,0.578,0.854,0.546,1.052,0.740,0.356,0.617,0.575,��쓌,13.8,�L
2021/09/18,09:00,0.580,0.853,0.547,1.052,0.740,0.358,0.618,0.575,��쓌,16.4,�L
2021/09/18,09:10,0.579,0.855,0.547,1.051,0.740,0.356,0.615,0.575,��쓌,16.6,�L
2021/09/18,09:20,0.579,0.855,0.547,1.051,0.741,0.359,0.616,0.576,��쓌,12.4,�L
2021/09/18,09:30,0.581,0.856,0.549,1.051,0.742,0.358,0.617,0.576,��,11.6,�L
2021/09/18,09:40,0.580,0.855,0.548,1.055,0.741,0.358,0.616,0.575,��,9.4,��
2021/09/18,09:50,0.582,0.858,0.549,1.051,0.742,0.359,0.617,0.576,��,10.5,�L
2021/09/18,10:00,0.580,0.857,0.548,1.054,0.741,0.358,0.616,0.576,��,10.8,�L
2021/09/18,10:10,0.580,0.855,0.547,1.054,0.742,0.359,0.616,0.575,��,12.1,�L
2021/09/18,10:20,0.578,0.852,0.546,1.051,0.740,0.359,0.615,0.574,��,10.5,�L
2021/09/18,10:30,0.578,0.853,0.546,1.051,0.737,0.357,0.615,0.574,��,9.4,�L
2021/09/18,10:40,0.576,0.853,0.545,1.050,0.738,0.357,0.615,0.573,��,10.2,�L
2021/09/18,10:50,0.573,0.849,0.544,1.048,0.734,0.356,0.611,0.572,��,10.2,�L
2021/09/18,11:00,0.571,0.844,0.543,1.047,0.731,0.356,0.610,0.571,��,10.5,�L
2021/09/18,11:10,0.571,0.846,0.543,1.042,0.731,0.357,0.611,0.571,��,10.7,�L
2021/09/18,11:20,0.572,0.848,0.542,1.042,0.732,0.357,0.610,0.572,��,8.3,�L
2021/09/18,11:30,0.573,0.848,0.544,1.045,0.733,0.357,0.612,0.572,��,10.3,�L
2021/09/18,11:40,0.573,0.848,0.544,1.043,0.734,0.358,0.611,0.571,��,9.5,�L
2021/09/18,11:50,0.573,0.850,0.546,1.045,0.735,0.357,0.611,0.572,��,9.2,�L
2021/09/18,12:00,0.574,0.849,0.545,1.045,0.733,0.356,0.612,0.572,��,9.6,�L
2021/09/18,12:10,0.575,0.849,0.545,1.043,0.734,0.359,0.612,0.572,��,8.8,�L
2021/09/18,12:20,0.576,0.851,0.545,1.045,0.735,0.358,0.612,0.571,��,8.8,�L
2021/09/18,12:30,0.577,0.854,0.545,1.044,0.736,0.358,0.613,0.572,��,9.6,�L
2021/09/18,12:40,0.576,0.853,0.547,1.044,0.737,0.358,0.613,0.572,��,8.8,�L
2021/09/18,12:50,0.577,0.855,0.546,1.046,0.737,0.358,0.613,0.574,��,7.3,�L
2021/09/18,13:00,0.577,0.854,0.545,1.046,0.736,0.358,0.614,0.574,��,8.5,�L
2021/09/18,13:10,0.578,0.855,0.547,1.048,0.736,0.358,0.613,0.573,��,9.4,�L
2021/09/18,13:20,0.578,0.853,0.547,1.047,0.738,0.359,0.615,0.573,��,10.2,�L
2021/09/18,13:30,0.577,0.852,0.547,1.047,0.738,0.360,0.612,0.574,��,9.0,�L
2021/09/18,13:40,0.576,0.852,0.547,1.046,0.737,0.359,0.614,0.573,��,8.3,�L
2021/09/18,13:50,0.577,0.855,0.547,1.049,0.738,0.359,0.614,0.573,��,9.7,�L
2021/09/18,14:00,0.577,0.855,0.547,1.048,0.738,0.358,0.614,0.573,��,9.0,�L
2021/09/18,14:10,0.578,0.852,0.549,1.046,0.738,0.359,0.613,0.572,��,10.3,�L
2021/09/18,14:20,0.578,0.855,0.548,1.047,0.737,0.357,0.613,0.573,��,9.2,�L
2021/09/18,14:30,0.578,0.854,0.548,1.047,0.737,0.357,0.615,0.573,��,10.5,�L
2021/09/18,14:40,0.578,0.856,0.546,1.046,0.738,0.357,0.614,0.574,��,10.5,�L
2021/09/18,14:50,0.578,0.855,0.546,1.048,0.737,0.358,0.614,0.573,��,9.7,�L
2021/09/18,15:00,0.576,0.854,0.547,1.048,0.738,0.357,0.613,0.572,��,9.1,�L
2021/09/18,15:10,0.578,0.854,0.546,1.046,0.738,0.357,0.614,0.573,��,9.6,�L
2021/09/18,15:20,0.578,0.854,0.547,1.049,0.739,0.358,0.614,0.574,��,8.5,��
2021/09/18,15:30,0.578,0.855,0.549,1.048,0.740,0.358,0.614,0.574,��,9.7,�L
2021/09/18,15:40,0.576,0.856,0.546,1.049,0.739,0.357,0.614,0.573,��,10.2,�L
2021/09/18,15:50,0.578,0.856,0.548,1.051,0.739,0.358,0.614,0.574,��,10.5,�L
2021/09/18,16:00,0.576,0.855,0.548,1.051,0.739,0.357,0.614,0.573,��,7.9,�L
2021/09/18,16:10,0.578,0.853,0.548,1.050,0.739,0.358,0.614,0.574,��,8.2,��
2021/09/18,16:20,0.577,0.856,0.550,1.049,0.739,0.355,0.613,0.574,��,7.4,��
2021/09/18,16:30,0.577,0.856,0.549,1.048,0.738,0.355,0.613,0.572,��,6.7,�L
2021/09/18,16:40,0.578,0.855,0.549,1.051,0.739,0.356,0.616,0.573,��,6.0,�L
2021/09/18,16:50,0.578,0.857,0.548,1.050,0.737,0.356,0.613,0.573,��,6.4,�L
2021/09/18,17:00,0.577,0.856,0.549,1.049,0.739,0.356,0.612,0.573,��,7.2,�L
2021/09/18,17:10,0.577,0.855,0.551,1.046,0.738,0.358,0.612,0.573,��,8.0,�L
2021/09/18,17:20,0.571,0.844,0.544,1.040,0.727,0.355,0.610,0.573,��,6.1,�L
2021/09/18,17:30,0.565,0.835,0.542,1.026,0.719,0.355,0.607,0.569,��쐼,5.3,�L
2021/09/18,17:40,0.569,0.838,0.543,1.025,0.723,0.354,0.606,0.570,��,4.1,�L
2021/09/18,17:50,0.570,0.843,0.543,1.028,0.724,0.356,0.610,0.571,��,3.6,�L
2021/09/18,18:00,0.573,0.843,0.543,1.028,0.725,0.355,0.609,0.570,��,3.1,�L
2021/09/18,18:10,0.570,0.842,0.543,1.027,0.725,0.357,0.609,0.569,��쐼,3.5,�L
2021/09/18,18:20,0.570,0.841,0.544,1.028,0.726,0.355,0.606,0.570,��,3.8,�L
2021/09/18,18:30,0.572,0.841,0.544,1.027,0.722,0.356,0.609,0.570,��,4.4,�L
2021/09/18,18:40,0.571,0.839,0.545,1.024,0.716,0.354,0.606,0.568,��,4.0,�L
2021/09/18,18:50,0.570,0.837,0.542,1.018,0.716,0.354,0.606,0.569,��,3.3,�L
2021/09/18,19:00,0.567,0.837,0.543,1.020,0.718,0.355,0.608,0.569,��,2.8,�L
2021/09/18,19:10,0.567,0.837,0.541,1.020,0.720,0.354,0.606,0.569,��,2.6,�L
2021/09/18,19:20,0.568,0.834,0.542,1.021,0.720,0.354,0.606,0.570,��,1.7,�L
2021/09/18,19:30,0.570,0.838,0.542,1.021,0.722,0.355,0.607,0.569,��,1.1,�L
2021/09/18,19:40,0.571,0.839,0.543,1.022,0.721,0.356,0.608,0.570,-,CALM,�L
2021/09/18,19:50,0.571,0.839,0.542,1.025,0.724,0.354,0.606,0.570,�쐼,0.6,�L
2021/09/18,20:00,0.572,0.842,0.543,1.026,0.724,0.355,0.607,0.570,���쐼,0.6,�L
2021/09/18,20:10,0.572,0.843,0.546,1.027,0.722,0.355,0.608,0.571,�k��,1.5,�L
2021/09/18,20:20,0.570,0.844,0.543,1.029,0.724,0.357,0.607,0.572,�k��,0.6,��
2021/09/18,20:30,0.570,0.843,0.543,1.028,0.725,0.356,0.607,0.571,�k�k��,1.2,�L
2021/09/18,20:40,0.571,0.842,0.544,1.028,0.723,0.356,0.607,0.571,�k,1.5,�L
2021/09/18,20:50,0.571,0.844,0.543,1.028,0.726,0.355,0.607,0.569,�k,4.2,��
2021/09/18,21:00,0.570,0.843,0.542,1.030,0.724,0.355,0.607,0.570,�k,5.4,�L
2021/09/18,21:10,0.570,0.846,0.541,1.031,0.725,0.354,0.607,0.570,�k�k��,4.5,�L
2021/09/18,21:20,0.571,0.844,0.541,1.030,0.725,0.354,0.607,0.571,�k�k��,4.6,�L
2021/09/18,21:30,0.571,0.844,0.543,1.030,0.726,0.355,0.607,0.569,�k�k��,3.9,�L
2021/09/18,21:40,0.571,0.844,0.542,1.031,0.725,0.354,0.606,0.569,�k�k��,5.1,��
2021/09/18,21:50,0.571,0.845,0.541,1.033,0.726,0.354,0.608,0.571,�k�k��,4.3,��
2021/09/18,22:00,0.570,0.845,0.544,1.034,0.724,0.354,0.608,0.570,�k�k��,4.8,��
2021/09/18,22:10,0.571,0.846,0.542,1.032,0.727,0.354,0.608,0.571,�k,6.9,�L
2021/09/18,22:20,0.573,0.846,0.544,1.035,0.726,0.354,0.609,0.571,�k,6.4,�L
2021/09/18,22:30,0.571,0.846,0.544,1.035,0.728,0.355,0.608,0.573,�k,6.3,�L
2021/09/18,22:40,0.573,0.846,0.544,1.035,0.729,0.356,0.610,0.572,�k,6.2,�L
2021/09/18,22:50,0.574,0.847,0.545,1.038,0.729,0.357,0.608,0.573,�k�k��,5.3,�L
2021/09/18,23:00,0.573,0.844,0.547,1.034,0.728,0.356,0.608,0.572,�k,5.5,�L
2021/09/18,23:10,0.574,0.845,0.546,1.035,0.729,0.357,0.610,0.572,�k,6.1,�L
2021/09/18,23:20,0.575,0.845,0.547,1.035,0.727,0.356,0.608,0.572,�k,6.3,�L
2021/09/18,23:30,0.574,0.844,0.543,1.033,0.728,0.356,0.609,0.572,�k,5.0,�L
2021/09/18,23:40,0.573,0.844,0.544,1.033,0.728,0.357,0.608,0.572,�k,4.2,�L
2021/09/18,23:50,0.572,0.843,0.545,1.034,0.728,0.357,0.609,0.570,�k,6.1,�L
